Regional Weather Roundup
Issued by NWS Charleston, WV

Home | Current Version | Previous Version | Text Only | Print | Product List | Glossary Off
Versions: 1 2 3 4 5 6 7 8 9 10 11 12 13 14 15 16 17 18 19 20 21 22 23 24 25 26 27 28 29 30 31 32 33 34 35 36 37 38 39 40 41 42 43 44 45 46 47 48 49 50

000
ASUS41 KRLX 210810
RWRRLX
West Virginia Regional Weather Roundup
National Weather Service Charleston WV
400 AM EDT THU AUG 21 2014

Note: "fair" indicates few or no clouds below 12,000 feet with no
significant weather and/or obstructions to visibility.

WVZ003-210900-
Northern Panhandle of West Virginia

CITY           SKY/WX    TMP DP  RH WIND       PRES   REMARKS
WHEELING       PTCLDY    68  65  90 S5        30.01S
$$

WVZ009-210900-
Northwest West Virginia

CITY           SKY/WX    TMP DP  RH WIND       PRES   REMARKS
PARKERSBURG    CLEAR     69  66  90 S3        30.05R
$$

WVZ006-210900-
Western West Virginia

CITY           SKY/WX    TMP DP  RH WIND       PRES   REMARKS
HUNTINGTON     CLEAR     67  66  97 CALM      30.05S
$$

WVZ015-210900-
West Central West Virginia

CITY           SKY/WX    TMP DP  RH WIND       PRES   REMARKS
CHARLESTON     CLEAR     70  69  97 CALM      30.06S
$$

WVZ031-210900-
North Central West Virginia

CITY           SKY/WX    TMP DP  RH WIND       PRES   REMARKS
CLARKSBURG     PTCLDY    67  65  93 S5        30.04R
MORGANTOWN     CLEAR     69  65  86 CALM      30.04S
$$

WVZ035-042-045-210900-
South Central West Virginia

CITY           SKY/WX    TMP DP  RH WIND       PRES   REMARKS
BECKLEY        PTCLDY    65  61  87 CALM      30.15R
BLUEFIELD      MOCLDY    65  60  84 W8        30.17R
LEWISBURG      FOG       65  63  93 CALM      30.13R VSB 1
$$

WVZ047-210900-
Northern Mountains of West Virginia

CITY           SKY/WX    TMP DP  RH WIND       PRES   REMARKS
ELKINS         MOCLDY    63  61  93 CALM      30.10R
$$

WVZ052-210900-
Eastern Panhandle of West Virginia

CITY           SKY/WX    TMP DP  RH WIND       PRES   REMARKS
MARTINSBURG    FOG       66  63  90 SW5       30.00F VSB 1/4
PETERSBURG     NOT AVBL
$$



USA.gov is the U.S. government's official web portal to all federal, state and local government web resources and services.